View from above orbital plane
|
View from above satellite
|
Ground track
|
The orbit data is extracted from the following two-line orbital elements,
1 34853U 93036ABX 22176.80535979 .00009681 00000-0 10494-2 0 9992
2 34853 74.0685 12.5341 0037008 0.4207 359.6997 14.87790393707971
Epoch (UTC): | 25 June 2022 19:19:43 |
Eccentricity: | 0.0037008 |
inclination: | 74.0685° |
perigee height: | 579 km |
apogee height: | 630 km |
right ascension of ascending node: | 12.5341° |
argument of perigee: | 0.4207° |
revolutions per day: | 14.87790393 |
mean anomaly at epoch: | 359.6997° |
orbit number at epoch: | 70797 |
The dashed part of the orbit path shows where the satellite is in the earth's shadow,
|
|